| time (UTC) | temp C | wind direction | speed KPH | gust KPH | rain 1hr cm | rain 24hr cm | rain mn cm | humidity % | barometer mb |
| 20260506233542 | 21 | 215 | 8.0 | 14.5 | 0.00 | 0.00 | 0.00 | 64 | 988.8 |
| 20260506233044 | 21 | 197 | 8.0 | 12.9 | 0.00 | 0.00 | 0.00 | 63 | 988.8 |
| 20260506232537 | 21 | 184 | 8.0 | 14.5 | 0.00 | 0.00 | 0.00 | 63 | 988.8 |
| 20260506232037 | 21 | 187 | 6.4 | 16.1 | 0.00 | 0.00 | 0.00 | 63 | 988.8 |
| 20260506231540 | 21 | 165 | 9.7 | 16.1 | 0.00 | 0.00 | 0.00 | 63 | 988.9 |
| 20260506231037 | 21 | 188 | 8.0 | 12.9 | 0.00 | 0.00 | 0.00 | 63 | 989.0 |
| 20260506230536 | 21 | 175 | 8.0 | 16.1 | 0.00 | 0.00 | 0.00 | 64 | 989.0 |
| 20260506230035 | 21 | 181 | 8.0 | 16.1 | 0.00 | 0.00 | 0.00 | 63 | 989.1 |
| 20260506225535 | 22 | 219 | 8.0 | 12.9 | 0.00 | 0.00 | 0.00 | 63 | 989.1 |
| 20260506225034 | 21 | 202 | 6.4 | 12.9 | 0.00 | 0.00 | 0.00 | 63 | 989.3 |
| 20260506224533 | 21 | 182 | 6.4 | 11.3 | 0.00 | 0.00 | 0.00 | 63 | 989.4 |
| 20260506224034 | 22 | 218 | 6.4 | 12.9 | 0.00 | 0.00 | 0.00 | 64 | 989.6 |
| 20260506223532 | 22 | 192 | 8.0 | 12.9 | 0.00 | 0.00 | 0.00 | 64 | 989.6 |
| 20260506223032 | 21 | 198 | 6.4 | 17.7 | 0.00 | 0.00 | 0.00 | 64 | 989.7 |
| 20260506222531 | 21 | 173 | 9.7 | 17.7 | 0.00 | 0.00 | 0.00 | 63 | 989.7 |
| 20260506222033 | 21 | 210 | 6.4 | 14.5 | 0.00 | 0.00 | 0.00 | 64 | 989.8 |
| 20260506221530 | 21 | 205 | 8.0 | 16.1 | 0.00 | 0.00 | 0.00 | 63 | 989.9 |
| 20260506221030 | 21 | 194 | 8.0 | 14.5 | 0.00 | 0.00 | 0.00 | 63 | 989.9 |
| 20260506220529 | 21 | 194 | 6.4 | 14.5 | 0.00 | 0.00 | 0.00 | 64 | 990.0 |
| 20260506220029 | 21 | 246 | 8.0 | 14.5 | 0.00 | 0.00 | 0.00 | 63 | 990.0 |
| 20260506215528 | 21 | 190 | 8.0 | 14.5 | 0.00 | 0.00 | 0.00 | 63 | 990.1 |
| 20260506215028 | 22 | 186 | 8.0 | 16.1 | 0.00 | 0.00 | 0.00 | 64 | 990.2 |
| 20260506214527 | 21 | 175 | 9.7 | 16.1 | 0.00 | 0.00 | 0.00 | 63 | 990.2 |
| 20260506214027 | 21 | 115 | 9.7 | 16.1 | 0.00 | 0.00 | 0.00 | 64 | 990.3 |
| 20260506213526 | 21 | 205 | 9.7 | 16.1 | 0.00 | 0.00 | 0.00 | 63 | 990.5 |
| 20260506213026 | 21 | 204 | 6.4 | 14.5 | 0.00 | 0.00 | 0.00 | 64 | 990.5 |
| 20260506212526 | 21 | 186 | 8.0 | 17.7 | 0.00 | 0.00 | 0.00 | 64 | 990.5 |
| 20260506212026 | 21 | 209 | 9.7 | 17.7 | 0.00 | 0.00 | 0.00 | 64 | 990.7 |
| 20260506211525 | 21 | 188 | 8.0 | 16.1 | 0.00 | 0.00 | 0.00 | 65 | 990.7 |
| 20260506211025 | 21 | 158 | 9.7 | 17.7 | 0.00 | 0.00 | 0.00 | 64 | 990.7 |
| 20260506210524 | 21 | 175 | 8.0 | 17.7 | 0.00 | 0.00 | 0.00 | 64 | 990.9 |
| 20260506210026 | 21 | 163 | 6.4 | 19.3 | 0.00 | 0.00 | 0.00 | 65 | 990.8 |
| 20260506205525 | 21 | 169 | 11.3 | 19.3 | 0.00 | 0.00 | 0.00 | 63 | 990.8 |
| 20260506205024 | 21 | 215 | 8.0 | 16.1 | 0.00 | 0.00 | 0.00 | 65 | 990.7 |
| 20260506204525 | 21 | 164 | 6.4 | 19.3 | 0.00 | 0.00 | 0.00 | 64 | 990.8 |
| 20260506204025 | 21 | 192 | 12.9 | 19.3 | 0.00 | 0.00 | 0.00 | 64 | 990.8 |
| 20260506203524 | 21 | 185 | 8.0 | 14.5 | 0.00 | 0.00 | 0.00 | 66 | 990.8 |
| 20260506203024 | 21 | 215 | 4.8 | 16.1 | 0.00 | 0.00 | 0.00 | 65 | 990.8 |
| 20260506202523 | 21 | 170 | 9.7 | 16.1 | 0.00 | 0.00 | 0.00 | 65 | 990.9 |
| 20260506202024 | 21 | 167 | 4.8 | 17.7 | 0.00 | 0.00 | 0.00 | 65 | 991.0 |
| 20260506201523 | 21 | 169 | 8.0 | 16.1 | 0.00 | 0.00 | 0.00 | 64 | 991.0 |
| 20260506201023 | 21 | 173 | 9.7 | 17.7 | 0.00 | 0.00 | 0.00 | 65 | 990.9 |
| 20260506200522 | 21 | 203 | 9.7 | 17.7 | 0.00 | 0.00 | 0.00 | 64 | 991.0 |
| 20260506200023 | 21 | 173 | 9.7 | 17.7 | 0.00 | 0.00 | 0.00 | 64 | 991.0 |
| 20260506195523 | 21 | 222 | 11.3 | 17.7 | 0.00 | 0.00 | 0.00 | 65 | 991.0 |
| 20260506195022 | 21 | 209 | 6.4 | 16.1 | 0.00 | 0.00 | 0.00 | 65 | 991.0 |
| 20260506194522 | 21 | 198 | 8.0 | 19.3 | 0.00 | 0.00 | 0.00 | 65 | 991.1 |
| 20260506194023 | 21 | 185 | 9.7 | 19.3 | 0.00 | 0.00 | 0.00 | 64 | 991.0 |
| 20260506193520 | 21 | 114 | 8.0 | 22.5 | 0.00 | 0.00 | 0.00 | 64 | 991.1 |
| 20260506193020 | 21 | 178 | 9.7 | 22.5 | 0.00 | 0.00 | 0.00 | 64 | 991.1 |
| 20260506192518 | 21 | 188 | 8.0 | 16.1 | 0.00 | 0.00 | 0.00 | 65 | 991.0 |
| 20260506192017 | 21 | 184 | 6.4 | 16.1 | 0.00 | 0.00 | 0.00 | 64 | 991.1 |
| 20260506191518 | 21 | 238 | 6.4 | 12.9 | 0.00 | 0.00 | 0.00 | 65 | 991.1 |
| 20260506191017 | 20 | 207 | 6.4 | 16.1 | 0.00 | 0.00 | 0.00 | 64 | 991.2 |
| 20260506190519 | 21 | 144 | 6.4 | 16.1 | 0.00 | 0.00 | 0.00 | 65 | 991.1 |
| 20260506190014 | 20 | 166 | 9.7 | 16.1 | 0.00 | 0.00 | 0.00 | 64 | 991.1 |
| 20260506185514 | 20 | 219 | 6.4 | 12.9 | 0.00 | 0.00 | 0.00 | 65 | 991.2 |
| 20260506185014 | 20 | 228 | 6.4 | 11.3 | 0.00 | 0.00 | 0.00 | 66 | 991.2 |
| 20260506184512 | 20 | 231 | 6.4 | 12.9 | 0.00 | 0.00 | 0.00 | 66 | 991.3 |
| 20260506184011 | 20 | 184 | 8.0 | 12.9 | 0.00 | 0.00 | 0.00 | 65 | 991.4 |
| 20260506183512 | 20 | 239 | 8.0 | 12.9 | 0.00 | 0.00 | 0.00 | 65 | 991.3 |
| 20260506183009 | 20 | 215 | 4.8 | 12.9 | 0.00 | 0.00 | 0.00 | 64 | 991.3 |
| 20260506182509 | 20 | 226 | 6.4 | 14.5 | 0.00 | 0.00 | 0.00 | 65 | 991.4 |
| 20260506182010 | 20 | 202 | 6.4 | 12.9 | 0.00 | 0.00 | 0.00 | 65 | 991.4 |
| 20260506181505 | 20 | 214 | 4.8 | 9.7 | 0.00 | 0.00 | 0.00 | 67 | 991.6 |
| 20260506181007 | 19 | 274 | 1.6 | 9.7 | 0.00 | 0.00 | 0.00 | 65 | 991.6 |
| 20260506180503 | 19 | 179 | 4.8 | 9.7 | 0.00 | 0.00 | 0.00 | 65 | 991.6 |
| 20260506180002 | 19 | 189 | 3.2 | 17.7 | 0.00 | 0.00 | 0.00 | 65 | 991.7 |
| 20260506175502 | 19 | 194 | 6.4 | 17.7 | 0.00 | 0.00 | 0.00 | 65 | 991.7 |
| 20260506175100 | 18 | 303 | 3.2 | 11.3 | 0.00 | 0.00 | 0.00 | 67 | 991.6 |
| 20260506174559 | 19 | 213 | 4.8 | 11.3 | 0.00 | 0.00 | 0.00 | 66 | 991.7 |
| 20260506174058 | 18 | 270 | 4.8 | 11.3 | 0.00 | 0.00 | 0.00 | 67 | 991.8 |
| 20260506173556 | 18 | 162 | 6.4 | 12.9 | 0.00 | 0.00 | 0.00 | 67 | 991.8 |
| 20260506173116 | 18 | 202 | 1.6 | 11.3 | 0.00 | 0.00 | 0.00 | 67 | 991.8 |
| 20260506172555 | 18 | 231 | 4.8 | 11.3 | 0.00 | 0.00 | 0.00 | 66 | 991.7 |
| 20260506172052 | 18 | 159 | 6.4 | 12.9 | 0.00 | 0.00 | 0.00 | 66 | 991.6 |
| 20260506171559 | 18 | 180 | 3.2 | 12.9 | 0.00 | 0.00 | 0.00 | 66 | 991.6 |
| 20260506171051 | 18 | 212 | 4.8 | 8.0 | 0.00 | 0.00 | 0.00 | 66 | 991.7 |
| 20260506170550 | 18 | 187 | 3.2 | 8.0 | 0.00 | 0.00 | 0.00 | 68 | 991.7 |
| 20260506170048 | 17 | 231 | 3.2 | 9.7 | 0.00 | 0.00 | 0.00 | 67 | 991.7 |
| 20260506165547 | 18 | 208 | 4.8 | 11.3 | 0.00 | 0.00 | 0.00 | 68 | 991.7 |
| 20260506165046 | 17 | 188 | 6.4 | 9.7 | 0.00 | 0.00 | 0.00 | 68 | 991.8 |
| 20260506164545 | 17 | 106 | 1.6 | 11.3 | 0.00 | 0.00 | 0.00 | 67 | 991.8 |
| 20260506164043 | 17 | 109 | 4.8 | 11.3 | 0.00 | 0.00 | 0.00 | 69 | 991.7 |
| 20260506163542 | 17 | 171 | 1.6 | 9.7 | 0.00 | 0.00 | 0.00 | 69 | 991.7 |
| 20260506163047 | 17 | 171 | 4.8 | 11.3 | 0.00 | 0.00 | 0.00 | 71 | 991.8 |
| 20260506162539 | 17 | 150 | 4.8 | 11.3 | 0.00 | 0.00 | 0.00 | 69 | 991.8 |
| 20260506162039 | 17 | 148 | 4.8 | 11.3 | 0.00 | 0.00 | 0.00 | 70 | 991.8 |
| 20260506161548 | 16 | 132 | 3.2 | 9.7 | 0.00 | 0.00 | 0.00 | 71 | 991.8 |
| 20260506161034 | 16 | 179 | 4.8 | 9.7 | 0.00 | 0.00 | 0.00 | 73 | 991.7 |
| 20260506160535 | 16 | 178 | 4.8 | 14.5 | 0.00 | 0.00 | 0.00 | 72 | 991.8 |
| 20260506160032 | 16 | 182 | 4.8 | 14.5 | 0.00 | 0.00 | 0.00 | 74 | 991.7 |
| 20260506155530 | 15 | 161 | 3.2 | 8.0 | 0.00 | 0.08 | 0.00 | 76 | 991.8 |
| 20260506155029 | 15 | 160 | 3.2 | 8.0 | 0.00 | 0.08 | 0.00 | 76 | 991.8 |
| 20260506154527 | 15 | 152 | 3.2 | 8.0 | 0.00 | 0.08 | 0.00 | 76 | 991.9 |
| 20260506154026 | 14 | 107 | 0.0 | 4.8 | 0.00 | 0.08 | 0.00 | 77 | 991.8 |
| 20260506153526 | 14 | 107 | 0.0 | 6.4 | 0.00 | 0.08 | 0.00 | 77 | 991.7 |
| 20260506153024 | 14 | 29 | 1.6 | 4.8 | 0.00 | 0.08 | 0.00 | 77 | 991.8 |
| 20260506152522 | 13 | 25 | 0.0 | 4.8 | 0.00 | 0.08 | 0.00 | 79 | 991.9 |
| 20260506152021 | 13 | 25 | 0.0 | 4.8 | 0.00 | 0.08 | 0.00 | 81 | 991.9 |
| 20260506151520 | 13 | 25 | 1.6 | 4.8 | 0.00 | 0.08 | 0.00 | 83 | 991.9 |
| 20260506151018 | 12 | 24 | 1.6 | 4.8 | 0.00 | 0.08 | 0.00 | 85 | 991.8 |
| 20260506150517 | 12 | 20 | 0.0 | 1.6 | 0.00 | 0.08 | 0.00 | 88 | 991.8 |
| 20260506150022 | 11 | 19 | 0.0 | 3.2 | 0.00 | 0.08 | 0.00 | 89 | 991.8 |
| 20260506145513 | 11 | 19 | 0.0 | 3.2 | 0.00 | 0.08 | 0.00 | 92 | 991.7 |
| 20260506145012 | 11 | 19 | 0.0 | 4.8 | 0.00 | 0.08 | 0.00 | 92 | 991.8 |
| 20260506144511 | 11 | 19 | 0.0 | 3.2 | 0.00 | 0.08 | 0.00 | 94 | 991.7 |
| 20260506144010 | 10 | 19 | 0.0 | 3.2 | 0.00 | 0.08 | 0.00 | 95 | 991.7 |
| 20260506143510 | 10 | 19 | 0.0 | 3.2 | 0.00 | 0.08 | 0.00 | 94 | 991.6 |
| 20260506143010 | 9 | 19 | 1.6 | 3.2 | 0.00 | 0.08 | 0.00 | 94 | 991.5 |
| 20260506142508 | 9 | 19 | 0.0 | 0.0 | 0.00 | 0.08 | 0.00 | 94 | 991.5 |
| 20260506142007 | 9 | 19 | 0.0 | 3.2 | 0.00 | 0.08 | 0.00 | 94 | 991.5 |
| 20260506141506 | 8 | 19 | 1.6 | 3.2 | 0.00 | 0.08 | 0.00 | 94 | 991.6 |
| 20260506141006 | 8 | 19 | 0.0 | 0.0 | 0.00 | 0.08 | 0.00 | 94 | 991.6 |
| 20260506140506 | 8 | 19 | 0.0 | 0.0 | 0.00 | 0.08 | 0.00 | 94 | 991.5 |
| 20260506140005 | 8 | 19 | 0.0 | 0.0 | 0.00 | 0.08 | 0.00 | 94 | 991.5 |
| 20260506135504 | 8 | 19 | 0.0 | 0.0 | 0.00 | 0.08 | 0.00 | 94 | 991.4 |
| 20260506135006 | 8 | 19 | 0.0 | 0.0 | 0.00 | 0.08 | 0.00 | 94 | 991.4 |
| 20260506134510 | 8 | 19 | 0.0 | 0.0 | 0.00 | 0.08 | 0.00 | 94 | 991.4 |
| 20260506134003 | 8 | 19 | 0.0 | 0.0 | 0.00 | 0.08 | 0.00 | 94 | 991.4 |
| 20260506133503 | 8 | 19 | 0.0 | 0.0 | 0.00 | 0.08 | 0.00 | 93 | 991.4 |
| 20260506133002 | 8 | 19 | 0.0 | 0.0 | 0.00 | 0.08 | 0.00 | 94 | 991.4 |
| 20260506132600 | 8 | 19 | 0.0 | 0.0 | 0.00 | 0.08 | 0.00 | 94 | 991.4 |
| 20260506132100 | 8 | 19 | 0.0 | 0.0 | 0.00 | 0.08 | 0.00 | 94 | 991.2 |
| 20260506131612 | 8 | 19 | 0.0 | 0.0 | 0.00 | 0.08 | 0.00 | 94 | 991.3 |
| 20260506131059 | 8 | 19 | 0.0 | 1.6 | 0.00 | 0.08 | 0.00 | 94 | 991.2 |
| 20260506130559 | 8 | 19 | 0.0 | 1.6 | 0.00 | 0.08 | 0.00 | 94 | 991.2 |
| 20260506130058 | 8 | 19 | 0.0 | 1.6 | 0.00 | 0.08 | 0.00 | 93 | 991.2 |
| 20260506125556 | 8 | 19 | 0.0 | 1.6 | 0.00 | 0.08 | 0.00 | 93 | 991.1 |
| 20260506125056 | 8 | 19 | 0.0 | 0.0 | 0.00 | 0.08 | 0.00 | 93 | 991.0 |
| 20260506124556 | 8 | 19 | 0.0 | 3.2 | 0.00 | 0.08 | 0.00 | 93 | 991.1 |
| 20260506124057 | 8 | 19 | 0.0 | 3.2 | 0.00 | 0.08 | 0.00 | 93 | 991.1 |
| 20260506123555 | 8 | 265 | 0.0 | 0.0 | 0.00 | 0.08 | 0.00 | 93 | 991.1 |
| 20260506123056 | 8 | 209 | 0.0 | 0.0 | 0.00 | 0.08 | 0.00 | 93 | 991.1 |
| 20260506122555 | 8 | 209 | 0.0 | 0.0 | 0.00 | 0.08 | 0.00 | 93 | 991.0 |
| 20260506122054 | 8 | 209 | 0.0 | 0.0 | 0.00 | 0.08 | 0.00 | 93 | 991.0 |
| 20260506121604 | 8 | 209 | 0.0 | 0.0 | 0.00 | 0.08 | 0.00 | 93 | 991.0 |
| 20260506121054 | 8 | 209 | 0.0 | 0.0 | 0.00 | 0.08 | 0.00 | 93 | 991.0 |
| 20260506120554 | 8 | 209 | 0.0 | 0.0 | 0.00 | 0.08 | 0.00 | 93 | 990.9 |
| 20260506120054 | 8 | 209 | 0.0 | 0.0 | 0.00 | 0.08 | 0.00 | 93 | 990.9 |
| 20260506115554 | 8 | 209 | 0.0 | 0.0 | 0.00 | 0.08 | 0.00 | 93 | 990.8 |
| 20260506115053 | 8 | 209 | 0.0 | 0.0 | 0.00 | 0.08 | 0.00 | 93 | 990.9 |
| 20260506114555 | 8 | 209 | 0.0 | 0.0 | 0.00 | 0.08 | 0.00 | 92 | 990.8 |
| 20260506114052 | 8 | 209 | 0.0 | 0.0 | 0.00 | 0.08 | 0.00 | 92 | 990.8 |
| 20260506113552 | 8 | 209 | 0.0 | 0.0 | 0.00 | 0.08 | 0.00 | 92 | 990.8 |
| 20260506113052 | 8 | 209 | 0.0 | 0.0 | 0.00 | 0.08 | 0.00 | 93 | 990.8 |
| 20260506112551 | 8 | 209 | 0.0 | 0.0 | 0.00 | 0.08 | 0.00 | 93 | 990.8 |
| 20260506112051 | 8 | 209 | 0.0 | 0.0 | 0.00 | 0.08 | 0.00 | 92 | 990.9 |
| 20260506111609 | 8 | 209 | 0.0 | 0.0 | 0.00 | 0.08 | 0.00 | 92 | 990.8 |
| 20260506111051 | 8 | 209 | 0.0 | 0.0 | 0.00 | 0.08 | 0.00 | 92 | 990.7 |
| 20260506110553 | 8 | 209 | 0.0 | 0.0 | 0.00 | 0.08 | 0.00 | 93 | 990.7 |
| 20260506110053 | 8 | 209 | 0.0 | 0.0 | 0.00 | 0.08 | 0.00 | 92 | 990.7 |
| 20260506105550 | 8 | 209 | 0.0 | 0.0 | 0.00 | 0.08 | 0.00 | 93 | 990.7 |
| 20260506105050 | 8 | 209 | 0.0 | 0.0 | 0.00 | 0.08 | 0.00 | 93 | 990.7 |
| 20260506104550 | 8 | 209 | 0.0 | 0.0 | 0.00 | 0.08 | 0.00 | 93 | 990.7 |
| 20260506104053 | 8 | 209 | 0.0 | 0.0 | 0.00 | 0.08 | 0.00 | 92 | 990.8 |
| 20260506103549 | 8 | 209 | 0.0 | 0.0 | 0.00 | 0.08 | 0.00 | 92 | 990.7 |
| 20260506103049 | 8 | 209 | 0.0 | 0.0 | 0.00 | 0.08 | 0.00 | 92 | 990.6 |
| 20260506102550 | 9 | 209 | 0.0 | 0.0 | 0.00 | 0.08 | 0.00 | 92 | 990.7 |
| 20260506102051 | 9 | 209 | 0.0 | 0.0 | 0.00 | 0.08 | 0.00 | 92 | 990.6 |
| 20260506101546 | 9 | 209 | 0.0 | 0.0 | 0.00 | 0.08 | 0.00 | 93 | 990.6 |
| 20260506101047 | 9 | 209 | 0.0 | 0.0 | 0.00 | 0.08 | 0.00 | 92 | 990.6 |
| 20260506100546 | 9 | 209 | 0.0 | 0.0 | 0.00 | 0.08 | 0.00 | 92 | 990.6 |
| 20260506100048 | 9 | 209 | 0.0 | 0.0 | 0.00 | 0.08 | 0.00 | 92 | 990.7 |
| 20260506095546 | 9 | 209 | 0.0 | 0.0 | 0.00 | 0.08 | 0.00 | 92 | 990.6 |
| 20260506095048 | 9 | 209 | 0.0 | 0.0 | 0.00 | 0.08 | 0.00 | 92 | 990.7 |
| 20260506094546 | 9 | 209 | 0.0 | 0.0 | 0.00 | 0.08 | 0.00 | 92 | 990.8 |
| 20260506094046 | 9 | 209 | 0.0 | 0.0 | 0.00 | 0.08 | 0.00 | 92 | 990.7 |
| 20260506093550 | 9 | 209 | 0.0 | 0.0 | 0.00 | 0.08 | 0.00 | 92 | 990.8 |
| 20260506093052 | 9 | 209 | 0.0 | 0.0 | 0.00 | 0.08 | 0.00 | 92 | 990.7 |
| 20260506092544 | 9 | 209 | 0.0 | 0.0 | 0.00 | 0.08 | 0.00 | 92 | 990.8 |
| 20260506092046 | 9 | 209 | 0.0 | 0.0 | 0.00 | 0.08 | 0.00 | 92 | 990.8 |
| 20260506091544 | 9 | 209 | 0.0 | 0.0 | 0.00 | 0.08 | 0.00 | 92 | 990.8 |
| 20260506091044 | 9 | 209 | 0.0 | 0.0 | 0.00 | 0.08 | 0.00 | 91 | 990.9 |
| 20260506090546 | 9 | 209 | 0.0 | 0.0 | 0.00 | 0.08 | 0.00 | 91 | 991.0 |
| 20260506090041 | 10 | 209 | 0.0 | 0.0 | 0.00 | 0.08 | 0.00 | 91 | 991.0 |
| 20260506085541 | 10 | 209 | 0.0 | 0.0 | 0.00 | 0.08 | 0.00 | 92 | 991.1 |
| 20260506085041 | 10 | 209 | 0.0 | 0.0 | 0.00 | 0.08 | 0.00 | 92 | 991.0 |
| 20260506084541 | 10 | 209 | 0.0 | 0.0 | 0.00 | 0.08 | 0.00 | 92 | 991.0 |
| 20260506084041 | 10 | 209 | 0.0 | 0.0 | 0.00 | 0.08 | 0.00 | 92 | 991.1 |
| 20260506083539 | 10 | 209 | 0.0 | 0.0 | 0.00 | 0.08 | 0.00 | 92 | 991.0 |
| 20260506083046 | 10 | 209 | 0.0 | 0.0 | 0.00 | 0.08 | 0.00 | 92 | 991.0 |
| 20260506082540 | 10 | 209 | 0.0 | 0.0 | 0.00 | 0.08 | 0.00 | 91 | 990.9 |
| 20260506082038 | 10 | 209 | 0.0 | 0.0 | 0.00 | 0.08 | 0.00 | 91 | 991.1 |
| 20260506081546 | 10 | 209 | 0.0 | 0.0 | 0.00 | 0.08 | 0.00 | 91 | 991.0 |
| 20260506081037 | 10 | 209 | 0.0 | 0.0 | 0.00 | 0.08 | 0.00 | 91 | 990.9 |
| 20260506080540 | 10 | 209 | 0.0 | 0.0 | 0.00 | 0.08 | 0.00 | 91 | 990.9 |
| 20260506073035 | 10 | 209 | 0.0 | 0.0 | 0.00 | 0.08 | 0.00 | 90 | 990.8 |
| 20260506072532 | 10 | 209 | 0.0 | 0.0 | 0.00 | 0.08 | 0.00 | 90 | 990.8 |
| 20260506072033 | 10 | 209 | 0.0 | 0.0 | 0.00 | 0.08 | 0.00 | 90 | 990.7 |
| 20260506071533 | 10 | 209 | 0.0 | 0.0 | 0.00 | 0.08 | 0.00 | 90 | 990.5 |
| 20260506071029 | 10 | 209 | 0.0 | 0.0 | 0.00 | 0.08 | 0.00 | 90 | 990.6 |
| 20260506070529 | 10 | 209 | 0.0 | 0.0 | 0.00 | 0.08 | 0.00 | 90 | 990.5 |
| 20260506062025 | 11 | 209 | 0.0 | 0.0 | 0.00 | 0.08 | 0.08 | 89 | 989.9 |
| 20260506061533 | 11 | 209 | 0.0 | 3.2 | 0.00 | 0.08 | 0.08 | 88 | 990.0 |
| 20260506061024 | 11 | 209 | 0.0 | 3.2 | 0.00 | 0.08 | 0.08 | 88 | 989.9 |
| 20260506060524 | 11 | 209 | 0.0 | 0.0 | 0.00 | 0.08 | 0.08 | 88 | 989.9 |
| 20260506051024 | 12 | 209 | 0.0 | 0.0 | 0.00 | 0.08 | 0.08 | 86 | 989.5 |
| 20260506050519 | 12 | 209 | 0.0 | 3.2 | 0.00 | 0.08 | 0.08 | 85 | 989.4 |
| 20260506045019 | 12 | 209 | 0.0 | 0.0 | 0.00 | 0.08 | 0.08 | 84 | 989.4 |
| 20260506044520 | 12 | 209 | 0.0 | 0.0 | 0.00 | 0.08 | 0.08 | 83 | 989.2 |
| 20260506044022 | 13 | 209 | 0.0 | 3.2 | 0.00 | 0.08 | 0.08 | 84 | 989.3 |
| 20260506043517 | 13 | 209 | 0.0 | 3.2 | 0.00 | 0.08 | 0.08 | 84 | 989.1 |
| 20260506043017 | 13 | 209 | 0.0 | 3.2 | 0.00 | 0.08 | 0.08 | 84 | 989.0 |
| 20260506042516 | 13 | 209 | 0.0 | 3.2 | 0.00 | 0.08 | 0.08 | 84 | 989.1 |
| 20260506042017 | 13 | 209 | 0.0 | 4.8 | 0.00 | 0.08 | 0.08 | 84 | 989.0 |
| 20260506041516 | 13 | 209 | 1.6 | 4.8 | 0.00 | 0.08 | 0.08 | 83 | 989.0 |
| 20260506041014 | 13 | 209 | 0.0 | 3.2 | 0.00 | 0.08 | 0.08 | 82 | 988.9 |
| 20260506040517 | 13 | 209 | 0.0 | 4.8 | 0.00 | 0.08 | 0.08 | 83 | 988.8 |
| 20260506040016 | 13 | 209 | 1.6 | 4.8 | 0.00 | 0.08 | 0.08 | 82 | 988.6 |
| 20260506035512 | 13 | 209 | 0.0 | 0.0 | 0.00 | 0.08 | 0.08 | 82 | 988.5 |
| 20260506035012 | 13 | 209 | 0.0 | 0.0 | 0.00 | 0.08 | 0.08 | 81 | 988.4 |
| 20260506034512 | 13 | 209 | 0.0 | 1.6 | 0.00 | 0.08 | 0.08 | 80 | 988.3 |
| 20260506034011 | 13 | 209 | 0.0 | 1.6 | 0.00 | 0.08 | 0.08 | 80 | 988.2 |
| 20260506033510 | 14 | 209 | 0.0 | 4.8 | 0.00 | 0.08 | 0.08 | 80 | 988.1 |
| 20260506033015 | 14 | 209 | 0.0 | 4.8 | 0.00 | 0.08 | 0.08 | 80 | 988.0 |
| 20260506032508 | 14 | 209 | 0.0 | 0.0 | 0.00 | 0.08 | 0.08 | 80 | 987.9 |
| 20260506032009 | 14 | 209 | 0.0 | 0.0 | 0.00 | 0.08 | 0.08 | 79 | 987.9 |
| 20260506031509 | 14 | 209 | 0.0 | 0.0 | 0.00 | 0.08 | 0.08 | 79 | 987.8 |
| 20260506031009 | 14 | 209 | 0.0 | 0.0 | 0.00 | 0.08 | 0.08 | 77 | 987.7 |
| 20260506030508 | 15 | 209 | 0.0 | 0.0 | 0.00 | 0.08 | 0.08 | 76 | 987.7 |
| 20260506030008 | 15 | 209 | 0.0 | 0.0 | 0.00 | 0.08 | 0.08 | 76 | 987.6 |
| 20260506025509 | 15 | 209 | 0.0 | 0.0 | 0.00 | 0.08 | 0.08 | 76 | 987.6 |
| 20260506025009 | 15 | 209 | 0.0 | 0.0 | 0.00 | 0.08 | 0.08 | 75 | 987.5 |
| 20260506024522 | 15 | 209 | 0.0 | 0.0 | 0.00 | 0.08 | 0.08 | 74 | 987.4 |
| 20260506024008 | 16 | 209 | 0.0 | 0.0 | 0.00 | 0.08 | 0.08 | 74 | 987.2 |
| 20260506023508 | 16 | 209 | 0.0 | 0.0 | 0.00 | 0.08 | 0.08 | 73 | 987.2 |
| 20260506023008 | 16 | 209 | 0.0 | 0.0 | 0.00 | 0.08 | 0.08 | 73 | 987.2 |
| 20260506022506 | 16 | 209 | 0.0 | 0.0 | 0.00 | 0.08 | 0.08 | 72 | 987.1 |
| 20260506022008 | 16 | 209 | 0.0 | 0.0 | 0.00 | 0.08 | 0.08 | 72 | 987.1 |
| 20260506021510 | 16 | 209 | 0.0 | 0.0 | 0.00 | 0.08 | 0.08 | 71 | 987.0 |
| 20260506021007 | 16 | 209 | 0.0 | 0.0 | 0.00 | 0.08 | 0.08 | 71 | 987.1 |
| 20260506020506 | 16 | 209 | 0.0 | 0.0 | 0.00 | 0.08 | 0.08 | 70 | 987.0 |
| 20260506020006 | 17 | 209 | 0.0 | 0.0 | 0.00 | 0.08 | 0.08 | 70 | 987.0 |
| 20260506015508 | 17 | 209 | 0.0 | 6.4 | 0.00 | 0.08 | 0.08 | 70 | 987.0 |
| 20260506015006 | 17 | 209 | 1.6 | 6.4 | 0.00 | 0.08 | 0.08 | 70 | 987.0 |
| 20260506014512 | 17 | 209 | 1.6 | 8.0 | 0.00 | 0.08 | 0.08 | 69 | 986.9 |
| 20260506014005 | 17 | 209 | 3.2 | 8.0 | 0.00 | 0.08 | 0.08 | 69 | 986.9 |
| 20260506013506 | 17 | 209 | 3.2 | 11.3 | 0.00 | 0.08 | 0.08 | 69 | 986.9 |
| 20260506013005 | 17 | 164 | 6.4 | 11.3 | 0.00 | 0.08 | 0.08 | 68 | 986.8 |
| 20260506012505 | 17 | 166 | 8.0 | 11.3 | 0.00 | 0.08 | 0.08 | 67 | 986.9 |
| 20260506012005 | 17 | 203 | 1.6 | 9.7 | 0.00 | 0.08 | 0.08 | 68 | 986.9 |
| 20260506011504 | 17 | 213 | 4.8 | 9.7 | 0.00 | 0.08 | 0.08 | 68 | 986.9 |
| 20260506011004 | 17 | 207 | 3.2 | 9.7 | 0.00 | 0.08 | 0.08 | 68 | 986.8 |
| 20260506010511 | 17 | 209 | 4.8 | 14.5 | 0.00 | 0.08 | 0.08 | 67 | 986.8 |
| 20260506010004 | 17 | 198 | 6.4 | 14.5 | 0.00 | 0.08 | 0.08 | 67 | 986.9 |
| 20260506005504 | 17 | 181 | 4.8 | 9.7 | 0.00 | 0.08 | 0.08 | 67 | 986.8 |
| 20260506005004 | 17 | 181 | 4.8 | 11.3 | 0.00 | 0.08 | 0.08 | 67 | 986.9 |
| 20260506004506 | 17 | 184 | 6.4 | 12.9 | 0.00 | 0.08 | 0.08 | 67 | 986.9 |
| 20260506004005 | 17 | 163 | 6.4 | 11.3 | 0.00 | 0.08 | 0.08 | 68 | 986.7 |
| 20260506003504 | 17 | 148 | 6.4 | 12.9 | 0.00 | 0.08 | 0.08 | 68 | 986.7 |
| 20260506003005 | 17 | 166 | 8.0 | 12.9 | 0.00 | 0.08 | 0.08 | 67 | 986.8 |
| 20260506002504 | 18 | 190 | 8.0 | 12.9 | 0.00 | 0.08 | 0.08 | 66 | 986.8 |
| 20260506002005 | 18 | 169 | 4.8 | 14.5 | 0.00 | 0.08 | 0.08 | 64 | 986.7 |
| 20260506001504 | 18 | 132 | 3.2 | 8.0 | 0.00 | 0.08 | 0.08 | 64 | 986.7 |
| 20260506001003 | 18 | 137 | 3.2 | 12.9 | 0.00 | 0.08 | 0.08 | 63 | 986.7 |
| 20260506000506 | 18 | 162 | 4.8 | 12.9 | 0.00 | 0.08 | 0.08 | 63 | 986.6 |
| 20260506000002 | 18 | 180 | 3.2 | 11.3 | 0.00 | 0.08 | 0.08 | 64 | 986.5 |
| 20260505235502 | 18 | 211 | 4.8 | 12.9 | 0.00 | 0.08 | 0.08 | 63 | 986.6 |
| 20260505235003 | 18 | 176 | 4.8 | 12.9 | 0.00 | 0.08 | 0.08 | 63 | 986.6 |
| 20260505234502 | 18 | 228 | 6.4 | 11.3 | 0.00 | 0.08 | 0.08 | 63 | 986.5 |
| 20260505234005 | 18 | 200 | 6.4 | 14.5 | 0.00 | 0.08 | 0.08 | 63 | 986.5 |